User: anonymous   Login
Location: Saratoga Springs
(43.0831°N, 73.7850°W)
Time: 16:53:28
(UTC-04:00)
Language:

Explorer 7 - Orbit

View from above orbital plane
View from above orbital plane
View from above satellite
View from above satellite

Ground track
Ground track

The orbit data is extracted from the following two-line orbital elements,

1 00022U 59009A   24102.85235760  .00004694  00000-0  29367-3 0  9995
2 00022  50.2809   9.7923 0115629 210.7068 148.7083 15.05831079679404
Epoch (UTC): 11 April 2024 20:27:23
Eccentricity: 0.0115629
inclination: 50.2809°
perigee height: 469 km
apogee height: 629 km
right ascension of ascending node: 9.7923°
argument of perigee: 210.7068°
revolutions per day: 15.05831079
mean anomaly at epoch: 148.7083°
orbit number at epoch: 67940

The dashed part of the orbit path shows where the satellite is in the earth's shadow,  

DLR